Regional Weather Roundup
Issued by NWS

Home | Current Version | Previous Version | Text Only | Print | Product List | Glossary Off
Versions: 1 2 3 4 5 6 7 8 9 10 11 12 13 14 15 16 17 18 19 20 21 22 23 24 25 26 27 28 29 30 31 32 33 34 35 36 37 38 39 40 41 42 43 44 45 46 47 48 49 50

000
ASUS44 KMEG 030310
RWRTN
TENNESSEE HOURLY STATE WEATHER ROUNDUP
NATIONAL WEATHER SERVICE MEMPHIS TN
1000 PM CDT SUN AUG 02 2015

TNZ002-004-019-021-049-052-054-088>092-030400-
WEST TENNESSEE

CITY           SKY/WX    TMP DP  RH WIND       PRES   REMARKS
MEMPHIS INTL   PTCLDY    82  70  66 CALM      29.90R
NWS MEMPHIS      N/A     77 N/A N/A MISG        N/A
JACKSON        PTCLDY    75  71  87 CALM      29.91R
DYERSBURG        N/A    N/A N/A N/A MISG        N/A
PARIS          CLEAR     70  66  88 CALM      29.92S
LEXINGTON      CLEAR     72  72 100 CALM      29.91R
$$

TNZ008-025-027-028-033-062-065-066-030400-
NORTH MIDDLE TENNESSEE

CITY           SKY/WX    TMP DP  RH WIND       PRES   REMARKS
NASHVILLE      CLEAR     76  47  35 CALM      29.93R
CLARKSVILLE    CLEAR     71  66  84 CALM      29.91R
SMYRNA         CLEAR     70  62  75 CALM      29.93R
CROSSVILLE     CLEAR     67  61  81 CALM      30.00R
$$

TNZ061-075-076-078-094-096-097-030400-
SOUTH MIDDLE TENNESSEE

CITY           SKY/WX    TMP DP  RH WIND       PRES   REMARKS
FAYETTEVILLE     N/A     72  57  60 NE5       29.94R
TULLAHOMA      CLEAR     66  63  88 CALM      29.96S
WINCHESTER     CLEAR     66  64  94 CALM      29.95R
COLUMBIA       CLEAR     70  70 100 CALM      29.92R
SHELBYVILLE    CLEAR     70  64  83 SE3       29.94S
$$

TNZ017-018-042-046-047-030400-
NORTHEAST TENNESSEE

CITY           SKY/WX    TMP DP  RH WIND       PRES   REMARKS
TRI CITIES     MOCLDY    70  61  73 CALM      29.97S
ELIZABETHTON   CLEAR     64  57  77 CALM      29.98S
$$

TNZ012-013-036-069-073-074-030400-
CENTRAL EAST TENNESSEE

CITY           SKY/WX    TMP DP  RH WIND       PRES   REMARKS
KNOXVILLE      PTCLDY    75  65  70 NE5       29.93R
OAK RIDGE      CLEAR     72  63  73 CALM      29.95S
GATLINBURG     CLEAR     72  64  78 CALM      29.94R
MORRISTOWN     CLEAR     70  64  83 CALM      29.96S
$$

TNZ083-085-099-030400-
SOUTHEAST TENNESSEE

CITY           SKY/WX    TMP DP  RH WIND       PRES   REMARKS
CHATTANOOGA    MOCLDY    76  65  68 CALM      29.92R
$$

SKY/WX REPORTED AS FAIR MEANS FEW OR NO CLOUDS BELOW
12 THOUSAND FEET.



USA.gov is the U.S. government's official web portal to all federal, state and local government web resources and services.